Location: Cortada de Papelón
(10.0378°N, 66.9528°W)
Time: 09:21:35
(UTC+00:00)

Okean 1 - Pass Details

Date: 13 June 2024
Orbit: 502 x 529 km, 82.5° (Epoch: 19 July)

Event Time Altitude Azimuth Distance (km) Brightness Sun altitude
Rises 23:06:46 0° 193° (SSW) 2,646 6.7 -4.8°
Reaches altitude 10° 23:08:55 10° 197° (SSW) 1,763 5.8 -5.2°
Maximum altitude 23:12:42 52° 274° (W) 658 4.2 -6.1°
Drops below altitude 10° 23:16:31 10° 352° (N) 1,774 6.4 -6.9°
Sets 23:18:42 0° 357° (N) 2,666 7.2 -7.4°
